Time,TemperatureF,DewpointF,PressureIn,WindDirection,WindDirectionDegrees,WindSpeedMPH,WindSpeedGustMPH,Humidity,HourlyPrecipIn,Conditions,Clouds,dailyrainin,SoftwareType,DateUTC
2013-02-13 00:02:00,17.0,14.0,-100.00,SSE,152,34.0,42.0,90,-99.99,,,-99.99,,2013-02-13 07:02:00,
2013-02-13 00:22:00,-999.0,-99.9,-100.00,SSE,150,37.0,45.0,-999,-99.99,,,-99.99,,2013-02-13 07:22:00,
2013-02-13 00:31:00,17.0,14.0,-100.00,SSE,151,37.0,45.0,90,0.00,,,-99.99,,2013-02-13 07:31:00,
2013-02-13 00:41:00,17.0,14.0,-100.00,SSE,155,38.0,45.0,90,0.00,,,-99.99,,2013-02-13 07:41:00,
2013-02-13 00:51:00,17.0,14.0,-100.00,SSE,155,39.0,50.0,90,0.00,,,-99.99,,2013-02-13 07:51:00,
2013-02-13 01:01:00,-999.0,-99.9,-100.00,SSE,158,39.0,51.0,-999,-99.99,,,-99.99,,2013-02-13 08:01:00,
2013-02-13 01:11:00,16.0,14.0,-100.00,SSE,157,37.0,45.0,91,-99.99,,,-99.99,,2013-02-13 08:11:00,
2013-02-13 01:21:00,17.0,14.0,-100.00,SSE,154,37.0,45.0,91,-99.99,,,-99.99,,2013-02-13 08:21:00,
2013-02-13 01:32:00,16.0,14.0,-100.00,SSE,154,37.0,45.0,91,0.00,,,-99.99,,2013-02-13 08:32:00,
2013-02-13 01:43:00,17.0,14.0,-100.00,SSE,150,39.0,49.0,90,0.00,,,-99.99,,2013-02-13 08:43:00,
2013-02-13 01:52:00,17.0,14.0,-100.00,SSE,148,38.0,45.0,91,0.00,,,-99.99,,2013-02-13 08:52:00,
2013-02-13 02:01:00,17.0,15.0,-100.00,SSE,150,38.0,48.0,91,0.00,,,-99.99,,2013-02-13 09:01:00,
2013-02-13 02:11:00,17.0,15.0,-100.00,SSE,147,37.0,47.0,91,0.00,,,-99.99,,2013-02-13 09:11:00,
2013-02-13 02:22:00,-999.0,-99.9,-100.00,SE,145,34.0,46.0,-999,-99.99,,,-99.99,,2013-02-13 09:22:00,
2013-02-13 02:31:00,17.0,15.0,-100.00,SE,145,34.0,44.0,90,0.00,,,-99.99,,2013-02-13 09:31:00,
2013-02-13 02:41:00,17.0,15.0,-100.00,SSE,147,37.0,50.0,90,0.00,,,-99.99,,2013-02-13 09:41:00,
2013-02-13 02:51:00,18.0,15.0,-100.00,SSE,148,40.0,49.0,90,0.00,,,-99.99,,2013-02-13 09:51:00,
2013-02-13 03:01:00,17.0,15.0,-100.00,SSE,148,37.0,49.0,90,0.00,,,-99.99,,2013-02-13 10:01:00,
2013-02-13 03:11:00,17.0,15.0,-100.00,SSE,152,40.0,50.0,91,0.00,,,-99.99,,2013-02-13 10:11:00,
2013-02-13 03:21:00,17.0,15.0,-100.00,SSE,150,39.0,52.0,92,0.00,,,-99.99,,2013-02-13 10:21:00,
2013-02-13 03:32:00,17.0,15.0,-100.00,SSE,147,43.0,54.0,92,0.01,,,-99.99,,2013-02-13 10:32:00,
2013-02-13 03:41:00,17.0,15.0,-100.00,SSE,150,43.0,54.0,92,0.00,,,-99.99,,2013-02-13 10:41:00,
2013-02-13 03:51:00,17.0,15.0,-100.00,SSE,152,44.0,54.0,92,0.01,,,-99.99,,2013-02-13 10:51:00,
2013-02-13 04:01:00,17.0,15.0,-100.00,SSE,150,42.0,54.0,92,-99.99,,,-99.99,,2013-02-13 11:01:00,
2013-02-13 04:11:00,17.0,15.0,-100.00,SSE,148,43.0,54.0,92,0.00,,,-99.99,,2013-02-13 11:11:00,
2013-02-13 04:22:00,17.0,15.0,-100.00,SSE,150,41.0,49.0,93,0.01,,,-99.99,,2013-02-13 11:22:00,
2013-02-13 04:32:00,18.0,16.0,-100.00,SSE,148,44.0,56.0,92,0.00,,,-99.99,,2013-02-13 11:32:00,
2013-02-13 04:42:00,18.0,16.0,-100.00,SSE,147,42.0,50.0,92,0.00,,,-99.99,,2013-02-13 11:42:00,
2013-02-13 04:52:00,18.0,16.0,-100.00,SE,144,40.0,54.0,91,0.00,,,-99.99,,2013-02-13 11:52:00,
2013-02-13 05:02:00,18.0,16.0,-100.00,SE,145,45.0,58.0,91,0.00,,,-99.99,,2013-02-13 12:02:00,
2013-02-13 05:11:00,18.0,16.0,-100.00,SSE,150,45.0,54.0,91,0.01,,,-99.99,,2013-02-13 12:11:00,
2013-02-13 05:21:00,18.0,16.0,-100.00,SSE,151,49.0,60.0,90,0.01,,,-99.99,,2013-02-13 12:21:00,
2013-02-13 05:32:00,19.0,16.0,-100.00,SSE,151,46.0,58.0,90,-99.99,,,-99.99,,2013-02-13 12:32:00,
2013-02-13 05:42:00,19.0,16.0,-100.00,SSE,152,45.0,58.0,89,0.01,,,-99.99,,2013-02-13 12:42:00,
2013-02-13 05:52:00,19.0,16.0,-100.00,SSE,151,45.0,55.0,88,0.00,,,-99.99,,2013-02-13 12:52:00,
2013-02-13 06:02:00,19.0,16.0,-100.00,SSE,148,45.0,55.0,87,0.00,,,-99.99,,2013-02-13 13:02:00,
2013-02-13 06:11:00,19.0,16.0,-100.00,SSE,147,44.0,55.0,88,0.00,,,-99.99,,2013-02-13 13:11:00,
2013-02-13 06:21:00,19.0,16.0,-100.00,SSE,147,44.0,53.0,88,0.00,,,-99.99,,2013-02-13 13:21:00,
2013-02-13 06:31:00,19.0,15.0,-100.00,SSE,148,37.0,45.0,86,0.00,,,-99.99,,2013-02-13 13:31:00,
2013-02-13 06:41:00,19.0,15.0,-100.00,SSE,160,34.0,44.0,86,0.00,,,-99.99,,2013-02-13 13:41:00,
2013-02-13 06:51:00,19.0,15.0,-100.00,SSE,160,32.0,40.0,85,0.00,,,-99.99,,2013-02-13 13:51:00,
2013-02-13 07:01:00,19.0,16.0,-100.00,SSE,161,35.0,49.0,87,0.00,,,-99.99,,2013-02-13 14:01:00,
2013-02-13 07:11:00,19.0,17.0,-100.00,SSE,164,40.0,51.0,89,0.00,,,-99.99,,2013-02-13 14:11:00,
2013-02-13 07:21:00,19.0,17.0,-100.00,SSE,160,44.0,55.0,89,0.00,,,-99.99,,2013-02-13 14:21:00,
2013-02-13 07:31:00,20.0,17.0,-100.00,SSE,160,43.0,55.0,90,0.00,,,-99.99,,2013-02-13 14:31:00,
2013-02-13 07:41:00,20.0,17.0,-100.00,SSE,160,45.0,57.0,90,0.00,,,-99.99,,2013-02-13 14:41:00,
2013-02-13 07:52:00,20.0,18.0,-100.00,SSE,161,47.0,58.0,91,0.00,,,-99.99,,2013-02-13 14:52:00,
2013-02-13 08:01:00,20.0,18.0,-100.00,SSE,162,47.0,62.0,91,0.00,,,-99.99,,2013-02-13 15:01:00,
2013-02-13 08:11:00,20.0,18.0,-100.00,SSE,161,49.0,58.0,91,0.01,,,-99.99,,2013-02-13 15:11:00,
2013-02-13 08:21:00,20.0,18.0,-100.00,SSE,160,45.0,58.0,91,0.01,,,-99.99,,2013-02-13 15:21:00,
2013-02-13 08:32:00,20.0,18.0,-100.00,SSE,158,44.0,54.0,91,0.03,,,-99.99,,2013-02-13 15:32:00,
2013-02-13 08:42:00,21.0,18.0,-100.00,SSE,160,44.0,56.0,91,0.01,,,-99.99,,2013-02-13 15:42:00,
2013-02-13 08:51:00,20.0,18.0,-100.00,SSE,162,44.0,53.0,92,0.03,,,-99.99,,2013-02-13 15:51:00,
2013-02-13 09:01:00,20.0,18.0,-100.00,SSE,164,44.0,56.0,93,0.04,,,-99.99,,2013-02-13 16:01:00,
2013-02-13 09:11:00,20.0,18.0,-100.00,SSE,161,40.0,48.0,94,0.03,,,-99.99,,2013-02-13 16:11:00,
2013-02-13 09:21:00,20.0,19.0,-100.00,SSE,161,40.0,50.0,94,0.04,,,-99.99,,2013-02-13 16:21:00,
2013-02-13 09:31:00,20.0,19.0,-100.00,SSE,160,41.0,50.0,94,0.04,,,-99.99,,2013-02-13 16:31:00,
2013-02-13 09:42:00,20.0,19.0,-100.00,SSE,158,39.0,48.0,94,0.01,,,-99.99,,2013-02-13 16:42:00,
2013-02-13 09:51:00,21.0,19.0,-100.00,SSE,161,42.0,48.0,94,-99.99,,,-99.99,,2013-02-13 16:51:00,
2013-02-13 10:01:00,21.0,19.0,-100.00,SSE,160,40.0,47.0,93,0.00,,,-99.99,,2013-02-13 17:01:00,
2013-02-13 10:11:00,21.0,19.0,-100.00,SSE,160,39.0,49.0,93,-99.99,,,-99.99,,2013-02-13 17:11:00,
2013-02-13 10:21:00,21.0,19.0,-100.00,SSE,158,41.0,53.0,93,0.01,,,-99.99,,2013-02-13 17:21:00,
2013-02-13 10:32:00,-999.0,-99.9,-100.00,SSE,162,40.0,52.0,-999,-99.99,,,-99.99,,2013-02-13 17:32:00,
2013-02-13 10:41:00,21.0,19.0,-100.00,SSE,162,40.0,46.0,90,0.00,,,-99.99,,2013-02-13 17:41:00,
2013-02-13 10:52:00,22.0,19.0,-100.00,SSE,165,38.0,46.0,88,0.00,,,-99.99,,2013-02-13 17:52:00,
2013-02-13 11:01:00,22.0,18.0,-100.00,SSE,168,36.0,44.0,87,0.00,,,-99.99,,2013-02-13 18:01:00,
2013-02-13 11:11:00,22.0,18.0,-100.00,SSE,167,35.0,44.0,87,0.00,,,-99.99,,2013-02-13 18:11:00,
2013-02-13 11:22:00,21.0,18.0,-100.00,SSE,165,34.0,45.0,89,0.00,,,-99.99,,2013-02-13 18:22:00,
2013-02-13 11:41:00,22.0,18.0,-100.00,SSE,168,36.0,45.0,88,0.00,,,-99.99,,2013-02-13 18:41:00,
2013-02-13 11:52:00,22.0,18.0,-100.00,SSE,164,34.0,44.0,85,0.00,,,-99.99,,2013-02-13 18:52:00,
2013-02-13 12:01:00,22.0,18.0,-100.00,SSE,164,30.0,36.0,85,0.00,,,-99.99,,2013-02-13 19:01:00,
2013-02-13 12:11:00,22.0,18.0,-100.00,SSE,161,32.0,39.0,86,0.00,,,-99.99,,2013-02-13 19:11:00,
2013-02-13 12:21:00,21.0,18.0,-100.00,SSE,157,35.0,43.0,86,0.00,,,-99.99,,2013-02-13 19:21:00,
2013-02-13 12:31:00,22.0,18.0,-100.00,SSE,155,35.0,43.0,88,0.00,,,-99.99,,2013-02-13 19:31:00,
2013-02-13 12:41:00,22.0,19.0,-100.00,SSE,158,37.0,46.0,88,0.00,,,-99.99,,2013-02-13 19:41:00,
2013-02-13 12:51:00,22.0,19.0,-100.00,SSE,155,39.0,46.0,91,0.00,,,-99.99,,2013-02-13 19:51:00,
2013-02-13 13:02:00,22.0,19.0,-100.00,SSE,155,40.0,47.0,91,0.00,,,-99.99,,2013-02-13 20:02:00,
2013-02-13 13:11:00,-999.0,-99.9,-100.00,SSE,157,39.0,46.0,-999,-99.99,,,-99.99,,2013-02-13 20:11:00,
2013-02-13 13:21:00,22.0,20.0,-100.00,SSE,152,39.0,49.0,92,0.01,,,-99.99,,2013-02-13 20:21:00,
2013-02-13 13:31:00,22.0,20.0,-100.00,SSE,152,39.0,46.0,92,0.00,,,-99.99,,2013-02-13 20:31:00,
2013-02-13 13:41:00,22.0,20.0,-100.00,SSE,151,39.0,45.0,92,0.00,,,-99.99,,2013-02-13 20:41:00,
2013-02-13 13:52:00,22.0,20.0,-100.00,SSE,155,39.0,47.0,91,0.00,,,-99.99,,2013-02-13 20:52:00,
2013-02-13 14:01:00,22.0,20.0,-100.00,SSE,155,37.0,47.0,90,0.00,,,-99.99,,2013-02-13 21:01:00,
2013-02-13 14:11:00,23.0,20.0,-100.00,SSE,155,35.0,47.0,89,0.00,,,-99.99,,2013-02-13 21:11:00,
2013-02-13 14:21:00,23.0,19.0,-100.00,SSE,155,34.0,45.0,86,0.00,,,-99.99,,2013-02-13 21:21:00,
2013-02-13 14:31:00,23.0,19.0,-100.00,SSE,157,33.0,42.0,83,0.00,,,-99.99,,2013-02-13 21:31:00,
2013-02-13 14:42:00,23.0,19.0,-100.00,SSE,161,35.0,42.0,83,0.00,,,-99.99,,2013-02-13 21:42:00,
2013-02-13 14:52:00,23.0,19.0,-100.00,SSE,161,36.0,45.0,84,0.00,,,-99.99,,2013-02-13 21:52:00,
2013-02-13 15:02:00,23.0,19.0,-100.00,SSE,158,36.0,46.0,84,0.00,,,-99.99,,2013-02-13 22:02:00,
2013-02-13 15:11:00,23.0,19.0,-100.00,SSE,157,37.0,43.0,83,0.00,,,-99.99,,2013-02-13 22:11:00,
2013-02-13 15:21:00,23.0,19.0,-100.00,SSE,157,34.0,39.0,85,0.00,,,-99.99,,2013-02-13 22:21:00,
2013-02-13 15:31:00,23.0,19.0,-100.00,SSE,155,35.0,41.0,85,0.00,,,-99.99,,2013-02-13 22:31:00,
2013-02-13 15:42:00,23.0,20.0,-100.00,SSE,157,34.0,42.0,87,0.00,,,-99.99,,2013-02-13 22:42:00,
2013-02-13 15:51:00,23.0,21.0,-100.00,SSE,158,32.0,40.0,92,0.00,,,-99.99,,2013-02-13 22:51:00,
2013-02-13 16:01:00,23.0,21.0,-100.00,SSE,158,33.0,40.0,93,0.00,,,-99.99,,2013-02-13 23:01:00,
2013-02-13 16:11:00,23.0,21.0,-100.00,SSE,158,34.0,42.0,94,0.00,,,-99.99,,2013-02-13 23:11:00,
2013-02-13 16:21:00,23.0,22.0,-100.00,SSE,160,34.0,40.0,95,-99.99,,,-99.99,,2013-02-13 23:21:00,
2013-02-13 16:32:00,23.0,22.0,-100.00,SSE,161,34.0,39.0,95,0.01,,,-99.99,,2013-02-13 23:32:00,
2013-02-13 16:41:00,23.0,22.0,-100.00,SSE,160,31.0,40.0,96,0.01,,,-99.99,,2013-02-13 23:41:00,
2013-02-13 16:52:00,23.0,22.0,-100.00,SSE,157,30.0,37.0,96,0.00,,,-99.99,,2013-02-13 23:52:00,
2013-02-13 17:02:00,-999.0,-99.9,-100.00,SSE,158,27.0,34.0,-999,-99.99,,,-99.99,,2013-02-14 00:02:00,
2013-02-13 17:11:00,23.0,21.0,-100.00,SSE,158,29.0,38.0,95,0.01,,,-99.99,,2013-02-14 00:11:00,
2013-02-13 17:21:00,22.0,21.0,-100.00,SSE,160,31.0,39.0,95,0.00,,,-99.99,,2013-02-14 00:21:00,
2013-02-13 17:32:00,22.0,21.0,-100.00,SSE,160,32.0,38.0,95,0.00,,,-99.99,,2013-02-14 00:32:00,
2013-02-13 17:42:00,22.0,21.0,-100.00,SSE,161,31.0,39.0,95,0.00,,,-99.99,,2013-02-14 00:42:00,
2013-02-13 17:51:00,22.0,21.0,-100.00,SSE,164,33.0,40.0,95,0.00,,,-99.99,,2013-02-14 00:51:00,
2013-02-13 18:01:00,23.0,22.0,-100.00,SSE,162,34.0,39.0,95,0.00,,,-99.99,,2013-02-14 01:01:00,
2013-02-13 18:11:00,23.0,22.0,-100.00,SSE,161,32.0,39.0,95,0.00,,,-99.99,,2013-02-14 01:11:00,
2013-02-13 18:21:00,22.0,21.0,-100.00,SSE,161,33.0,39.0,96,0.00,,,-99.99,,2013-02-14 01:21:00,
2013-02-13 18:31:00,22.0,21.0,-100.00,SSE,158,34.0,42.0,96,0.00,,,-99.99,,2013-02-14 01:31:00,
2013-02-13 18:41:00,23.0,22.0,-100.00,SSE,160,32.0,40.0,96,0.00,,,-99.99,,2013-02-14 01:41:00,
2013-02-13 18:51:00,23.0,22.0,-100.00,SSE,160,30.0,39.0,95,0.00,,,-99.99,,2013-02-14 01:51:00,
2013-02-13 19:01:00,23.0,22.0,-100.00,SSE,161,32.0,38.0,95,0.00,,,-99.99,,2013-02-14 02:01:00,
2013-02-13 19:11:00,23.0,22.0,-100.00,SSE,158,32.0,40.0,94,0.00,,,-99.99,,2013-02-14 02:11:00,
2013-02-13 19:21:00,23.0,22.0,-100.00,SSE,157,32.0,39.0,94,0.00,,,-99.99,,2013-02-14 02:21:00,
2013-02-13 19:31:00,23.0,22.0,-100.00,SSE,158,32.0,38.0,93,0.00,,,-99.99,,2013-02-14 02:31:00,
2013-02-13 19:41:00,23.0,22.0,-100.00,SSE,158,32.0,38.0,93,0.00,,,-99.99,,2013-02-14 02:41:00,
2013-02-13 19:51:00,23.0,22.0,-100.00,SSE,158,32.0,38.0,93,0.00,,,-99.99,,2013-02-14 02:51:00,
2013-02-13 20:21:00,23.0,21.0,-100.00,SSE,158,32.0,39.0,90,0.00,,,-99.99,,2013-02-14 03:21:00,
2013-02-13 20:31:00,23.0,20.0,-100.00,SSE,157,30.0,37.0,89,0.00,,,-99.99,,2013-02-14 03:31:00,
2013-02-13 20:42:00,23.0,20.0,-100.00,SSE,157,30.0,37.0,89,0.00,,,-99.99,,2013-02-14 03:42:00,
2013-02-13 20:51:00,23.0,20.0,-100.00,SSE,157,27.0,32.0,88,0.00,,,-99.99,,2013-02-14 03:51:00,
2013-02-13 21:01:00,23.0,20.0,-100.00,SSE,155,28.0,37.0,87,0.00,,,-99.99,,2013-02-14 04:01:00,
2013-02-13 21:11:00,23.0,20.0,-100.00,SSE,154,26.0,32.0,87,0.00,,,-99.99,,2013-02-14 04:11:00,
2013-02-13 21:21:00,23.0,20.0,-100.00,SSE,152,26.0,36.0,87,0.00,,,-99.99,,2013-02-14 04:21:00,
2013-02-13 21:31:00,23.0,20.0,-100.00,SSE,157,28.0,38.0,88,0.00,,,-99.99,,2013-02-14 04:31:00,
2013-02-13 21:41:00,23.0,20.0,-100.00,SSE,157,27.0,34.0,88,0.00,,,-99.99,,2013-02-14 04:41:00,
2013-02-13 21:51:00,23.0,20.0,-100.00,SE,145,25.0,34.0,86,0.00,,,-99.99,,2013-02-14 04:51:00,
2013-02-13 22:01:00,23.0,19.0,-100.00,SSE,150,24.0,33.0,86,0.00,,,-99.99,,2013-02-14 05:01:00,
2013-02-13 22:11:00,23.0,19.0,-100.00,SSE,147,26.0,33.0,83,0.00,,,-99.99,,2013-02-14 05:11:00,
2013-02-13 22:21:00,23.0,19.0,-100.00,SE,144,27.0,34.0,83,0.00,,,-99.99,,2013-02-14 05:21:00,
2013-02-13 22:31:00,23.0,19.0,-100.00,SSE,147,27.0,36.0,85,0.00,,,-99.99,,2013-02-14 05:31:00,
2013-02-13 22:41:00,23.0,20.0,-100.00,SSE,148,28.0,37.0,87,0.00,,,-99.99,,2013-02-14 05:41:00,
2013-02-13 22:52:00,23.0,20.0,-100.00,SSE,150,29.0,39.0,89,0.01,,,-99.99,,2013-02-14 05:52:00,
2013-02-13 23:02:00,22.0,20.0,-100.00,SSE,150,27.0,36.0,91,0.01,,,-99.99,,2013-02-14 06:02:00,
2013-02-13 23:11:00,22.0,20.0,-100.00,SSE,148,27.0,33.0,92,0.01,,,-99.99,,2013-02-14 06:11:00,
2013-02-13 23:21:00,22.0,20.0,-100.00,SSE,150,29.0,35.0,92,0.00,,,-99.99,,2013-02-14 06:21:00,
2013-02-13 23:31:00,22.0,20.0,-100.00,SSE,147,26.0,32.0,90,0.00,,,-99.99,,2013-02-14 06:31:00,
2013-02-13 23:41:00,22.0,19.0,-100.00,SSE,148,27.0,34.0,87,0.00,,,-99.99,,2013-02-14 06:41:00,
2013-02-13 23:51:00,22.0,19.0,-100.00,SSE,151,28.0,35.0,87,0.00,,,-99.99,,2013-02-14 06:51:00,